Wind_Speed
14 13 13 13 12 12 11 11 10 10 9 9 8 7 7 7 6 6 6 7 7 7 8 8 7 7 7 7 6 6 6 6 6 6 6 6 6 6 6 6 6 7 8
16 15 14 14 13 13 12 12 12 11 11 10 10 9 9 9 8 8 8 8 8 9 9 9 9 9 9 8 8 7 7 7 7 7 7 7 7 7 7 8 8 8 8
17 16 16 15 14 14 13 13 12 12 12 11 11 10 10 10 10 10 10 10 10 11 11 11 11 10 10 10 9 9 9 9 8 9 9 9 9 9 9 10 10 10 10
18 18 17 17 16 15 14 14 13 13 13 12 12 11 11 11 11 11 11 11 12 12 12 12 12 12 11 11 11 11 11 11 11 10 11 11 11 12 12 12 12 11 12
19 18 18 18 17 17 16 15 15 14 14 14 14 13 13 13 13 13 13 12 13 13 13 13 13 13 13 12 13 13 13 13 13 13 13 13 13 14 14 14 14 14 14
20 19 19 19 19 18 18 17 17 16 16 16 15 15 15 15 15 15 15 14 14 14 14 14 14 14 14 14 14 14 14 14 15 15 14 15 15 15 15 16 16 16 16
21 20 21 20 20 19 19 19 18 18 18 17 17 17 17 16 16 16 16 16 16 16 16 16 16 16 16 16 16 16 16 16 16 17 17 17 17 17 17 17 17 18 18
23 22 22 21 21 21 20 20 20 19 19 18 18 18 18 17 17 17 18 18 17 17 17 17 18 18 18 18 18 19 18 18 19 19 19 19 19 19 19 19 20 20 20
24 24 23 23 22 22 22 21 20 20 19 19 19 19 18 18 19 19 19 19 19 19 19 19 19 19 20 20 20 21 21 21 21 21 21 21 22 22 22 22 22 22 22
26 25 25 24 24 24 23 22 21 21 21 20 20 20 20 20 20 20 21 21 21 21 21 21 21 21 21 21 22 22 22 22 22 22 23 23 23 24 24 24 24 24 25
27 27 27 26 25 24 23 23 23 22 22 22 21 21 22 22 22 22 22 22 22 22 22 22 22 22 23 23 23 23 24 24 24 24 25 25 25 25 26 26 26 26 27
28 28 27 26 26 25 25 25 24 24 24 24 23 23 23 23 23 23 23 23 24 24 24 24 24 23 24 24 25 25 26 26 26 27 27 27 28 28 28 28 28 28 29
29 29 28 27 26 26 26 26 26 26 26 26 25 25 25 25 24 24 24 24 25 25 25 25 24 24 25 25 26 27 27 28 28 29 29 30 30 30 30 30 30 30 30
28 28 28 28 28 27 27 27 27 27 27 26 26 26 26 25 25 25 25 25 25 26 26 26 27 26 27 27 28 28 29 30 30 30 31 31 31 32 32 32 33 33 33
28 28 28 29 28 28 28 28 28 28 27 27 26 27 26 27 27 27 27 27 28 28 28 28 28 28 29 29 30 30 31 31 32 32 33 33 33 33 34 35 35 35 35
29 29 29 29 29 29 29 29 29 28 28 28 28 28 28 28 28 28 29 30 30 30 30 30 30 30 30 31 32 32 33 33 34 35 35 36 36 36 37 37 37 38 37
30 30 30 30 30 30 30 30 30 30 30 30 30 30 29 29 29 30 30 31 31 32 32 32 32 32 33 34 34 35 35 36 37 37 38 38 39 39 40 39 40 40 40
31 31 31 31 31 31 32 32 31 31 31 32 32 31 31 31 31 32 32 32 33 33 34 34 35 35 35 36 37 37 38 39 40 40 40 40 41 41 42 42 42 42 42
33 32 32 32 32 33 33 33 33 33 33 33 34 33 33 33 33 34 34 34 34 35 35 36 37 38 38 38 39 40 40 42 42 42 42 42 43 44 44 44 44 44 44
34 34 33 33 33 34 34 34 34 34 34 34 34 35 35 35 35 36 36 36 36 37 38 38 39 39 40 41 41 42 42 43 43 44 44 44 45 45 45 46 46 46 46
35 35 35 34 34 35 35 35 34 34 34 35 35 36 36 37 37 37 37 38 38 39 40 40 41 41 42 43 43 43 44 45 45 45 45 45 46 46 46 47 47 47 48
37 37 37 36 36 36 36 35 36 36 36 36 37 37 37 38 38 39 39 39 40 41 41 42 42 43 44 44 45 45 45 45 45 46 46 47 47 48 48 48 49 49 50
38 38 38 38 38 37 37 37 37 38 38 38 38 38 38 39 40 40 41 41 42 42 43 43 44 44 45 46 46 47 47 46 46 46 47 47 48 49 49 49 50 50 52
39 39 39 39 39 39 39 39 39 39 39 39 39 40 40 41 41 42 42 43 43 43 43 44 45 45 46 47 48 49 49 49 49 48 48 49 49 50 51 51 51 52 52
40 40 40 40 40 41 41 40 40 40 40 40 41 41 42 42 42 43 43 43 43 44 44 45 46 46 47 48 49 49 50 50 51 52 51 51 51 52 52 52 53 53 53
41 41 41 41 42 42 42 42 41 41 42 42 42 43 42 42 42 43 43 44 45 46 46 46 47 47 48 49 50 51 51 52 52 53 53 53 53 53 53 53 53 54 54
Wind_Direction
241 244 247 249 249 250 252 254 254 256 256 253 250 252 256 260 265 264 267 271 276 283 287 289 289 293 296 299 302 304 305 310 309 307 308 311 311 310 307 304 299 297 295
243 245 247 248 249 250 250 252 253 254 254 253 254 254 258 261 266 268 269 271 275 280 284 286 288 290 290 292 294 296 295 297 299 299 300 301 302 300 299 297 295 293 292
243 246 248 248 248 249 249 250 251 252 253 252 254 257 259 263 267 270 273 275 277 278 280 283 286 288 288 288 288 290 291 291 293 294 294 294 295 296 294 292 291 288 289
244 245 247 248 247 248 248 249 250 252 252 254 255 258 262 264 268 273 276 278 279 280 281 283 284 286 285 284 285 286 286 287 288 288 288 289 290 291 291 289 287 285 286
244 245 246 247 248 248 248 250 252 253 253 255 257 259 263 266 268 272 275 278 279 279 280 281 283 284 284 284 285 285 284 285 286 286 286 287 288 288 288 286 284 285 284
244 244 245 246 247 248 249 251 254 255 255 255 257 259 263 266 268 271 274 276 277 278 280 282 283 285 284 285 285 285 283 283 284 284 285 285 286 286 285 284 283 284 283
243 244 246 246 247 248 250 252 254 255 256 257 258 260 262 265 268 271 273 274 276 277 279 281 281 283 283 283 284 284 283 282 282 282 282 283 284 284 284 282 282 282 283
244 244 247 248 248 249 251 253 254 256 257 257 258 260 263 265 268 271 273 274 275 276 277 279 281 282 282 282 283 283 283 282 283 283 282 283 283 283 284 283 282 282 282
245 245 247 249 250 251 252 253 253 254 257 258 259 261 264 267 269 271 273 274 275 276 278 279 281 281 281 282 282 282 282 281 281 282 282 282 282 283 283 284 283 283 283
246 247 248 249 251 252 252 252 253 255 258 260 262 264 266 269 270 272 273 275 276 276 277 279 280 281 280 281 282 282 282 281 281 282 282 282 282 283 283 283 283 283 283
247 248 248 250 252 251 251 252 254 255 258 261 264 265 267 269 271 273 274 275 276 276 276 278 279 280 280 280 281 282 282 282 282 283 283 283 283 283 283 283 283 283 283
248 249 250 251 251 252 253 254 255 257 259 262 264 266 268 270 272 272 273 275 277 277 277 277 278 279 279 280 281 282 283 283 283 283 283 283 283 282 283 284 284 284 284
248 249 250 251 252 254 255 256 257 259 260 262 264 266 268 270 271 273 274 275 276 277 278 278 278 280 280 280 281 282 283 284 284 284 284 284 284 283 283 284 284 284 284
249 250 251 252 253 255 256 257 258 259 260 262 264 266 267 269 271 272 274 274 276 277 278 278 278 279 279 281 282 283 284 285 285 285 285 285 284 284 284 284 284 284 283
250 251 252 254 255 256 257 258 259 259 260 261 263 266 267 270 271 273 274 275 275 276 277 278 279 280 280 281 282 282 283 284 285 285 285 285 285 284 283 283 283 283 283
250 251 253 255 256 257 257 258 259 260 261 262 264 266 268 270 271 273 275 276 276 277 277 278 280 280 280 281 282 283 283 283 284 284 284 284 284 284 283 283 283 282 282
252 253 254 256 257 258 258 258 259 261 262 263 265 266 268 270 272 275 277 278 278 277 278 278 280 280 281 282 283 283 284 284 284 285 284 284 284 284 283 282 282 282 282
253 254 255 257 258 259 260 259 260 262 263 265 266 267 269 271 273 276 278 279 279 279 278 279 280 281 282 283 283 284 285 285 285 285 285 284 284 284 284 283 282 282 281
254 255 256 257 258 259 260 261 262 263 265 266 267 269 270 272 274 276 277 278 279 280 280 280 281 282 283 284 285 285 286 286 286 286 286 286 286 284 283 283 282 282 281
254 255 256 257 258 259 260 262 263 265 266 267 268 269 270 272 274 276 277 278 279 280 281 281 282 282 283 284 285 285 285 286 286 286 286 286 287 286 284 283 281 281 280
254 255 256 257 259 259 260 262 264 265 267 268 269 270 272 273 274 276 277 278 280 281 282 282 282 282 284 285 285 286 286 286 286 287 288 288 287 286 285 283 281 281 280
255 256 256 257 259 260 261 262 264 265 266 268 269 271 273 274 276 277 277 279 280 281 282 283 283 283 285 285 286 286 287 286 286 288 288 288 288 287 286 284 283 281 280
256 257 257 258 259 260 262 263 264 265 267 268 270 272 274 276 277 278 278 279 280 282 282 283 284 284 284 285 286 287 288 288 288 288 288 289 289 288 287 286 285 283 282
256 257 258 259 259 261 262 263 264 266 268 269 270 272 274 276 277 278 279 280 281 282 282 282 283 284 284 285 286 287 288 288 288 288 288 289 289 288 288 287 286 285 284
257 258 259 259 259 260 262 263 264 266 267 269 270 272 274 276 277 278 279 280 281 282 282 282 283 284 284 285 286 287 287 288 289 289 288 289 289 289 288 288 287 286 286
258 259 260 260 260 261 262 263 265 266 268 269 271 272 274 275 277 278 279 279 281 282 282 283 283 284 285 285 286 287 288 289 289 290 290 289 289 289 289 288 287 287 287
Height
5861 5862 5863 5864 5865 5866 5867 5867 5868 5869 5870 5870 5871 5871 5872 5873 5873 5873 5874 5874 5874 5875 5875 5875 5875 5875 5874 5874 5874 5874 5873 5873 5873 5873 5873 5872 5872 5872 5871 5871 5871 5870 5870
5859 5860 5861 5862 5863 5864 5865 5866 5867 5868 5868 5869 5870 5870 5871 5872 5872 5872 5873 5873 5873 5873 5873 5873 5874 5873 5873 5873 5873 5873 5873 5872 5872 5872 5872 5871 5871 5870 5870 5870 5870 5869 5869
5856 5858 5859 5860 5861 5862 5863 5864 5865 5866 5867 5867 5868 5869 5870 5870 5871 5871 5871 5872 5872 5872 5872 5872 5872 5872 5872 5872 5872 5872 5871 5871 5871 5871 5870 5870 5869 5869 5869 5868 5868 5867 5867
5854 5855 5856 5858 5859 5860 5861 5862 5863 5864 5865 5866 5866 5867 5868 5868 5869 5869 5870 5870 5870 5870 5870 5870 5870 5870 5870 5870 5870 5870 5869 5869 5869 5869 5869 5868 5868 5867 5867 5866 5866 5865 5865
5851 5852 5854 5855 5856 5858 5859 5860 5861 5862 5863 5864 5864 5865 5866 5866 5867 5867 5868 5868 5868 5868 5868 5868 5868 5868 5868 5868 5867 5867 5867 5867 5867 5866 5866 5866 5865 5865 5864 5864 5864 5863 5863
5848 5849 5851 5852 5854 5855 5856 5857 5858 5859 5860 5861 5862 5863 5863 5864 5864 5865 5865 5865 5865 5866 5866 5866 5865 5865 5865 5865 5865 5865 5864 5864 5864 5864 5864 5863 5863 5862 5862 5861 5861 5860 5860
5845 5846 5848 5849 5850 5852 5853 5854 5855 5856 5857 5858 5859 5860 5861 5861 5862 5862 5862 5862 5863 5863 5863 5863 5863 5862 5862 5862 5862 5862 5861 5861 5861 5861 5860 5860 5859 5859 5858 5858 5857 5857 5856
5841 5843 5844 5846 5847 5848 5850 5851 5852 5853 5854 5855 5856 5857 5857 5858 5859 5859 5859 5859 5859 5859 5859 5859 5859 5859 5859 5859 5858 5858 5858 5858 5857 5857 5857 5856 5856 5855 5855 5854 5853 5853 5852
5837 5839 5841 5842 5843 5845 5846 5847 5848 5849 5850 5851 5852 5853 5854 5855 5855 5855 5855 5856 5856 5856 5856 5856 5856 5856 5855 5855 5855 5854 5854 5854 5853 5853 5853 5852 5852 5851 5851 5850 5849 5849 5848
5833 5835 5837 5838 5840 5841 5842 5844 5845 5846 5847 5848 5849 5849 5850 5851 5851 5851 5851 5852 5852 5852 5852 5852 5852 5851 5851 5851 5851 5850 5850 5849 5849 5849 5848 5848 5847 5847 5846 5845 5845 5844 5843
5828 5830 5832 5834 5835 5837 5838 5839 5841 5842 5843 5844 5845 5845 5846 5847 5847 5847 5847 5847 5847 5847 5847 5847 5847 5847 5847 5846 5846 5846 5845 5845 5845 5844 5844 5843 5843 5842 5841 5840 5840 5839 5838
5824 5825 5827 5829 5831 5833 5834 5835 5836 5837 5839 5839 5840 5841 5842 5842 5842 5843 5843 5843 5843 5843 5843 5843 5843 5842 5842 5842 5841 5841 5840 5840 5839 5839 5838 5838 5837 5836 5836 5835 5834 5833 5832
5818 5821 5823 5824 5826 5828 5829 5831 5832 5833 5834 5835 5836 5836 5837 5837 5838 5838 5838 5838 5838 5838 5838 5838 5838 5837 5837 5836 5836 5835 5835 5834 5834 5833 5833 5832 5831 5830 5829 5829 5828 5827 5826
5813 5815 5817 5819 5821 5823 5824 5826 5827 5828 5829 5830 5830 5831 5832 5832 5833 5833 5833 5833 5833 5833 5833 5833 5832 5832 5831 5831 5830 5830 5829 5829 5828 5827 5826 5826 5825 5824 5823 5822 5821 5820 5819
5808 5810 5812 5814 5816 5817 5819 5820 5821 5822 5823 5824 5825 5826 5826 5827 5827 5827 5828 5828 5827 5827 5827 5827 5826 5826 5826 5825 5824 5823 5823 5822 5821 5820 5819 5819 5818 5816 5815 5814 5813 5812 5811
5803 5805 5807 5808 5810 5811 5813 5814 5815 5817 5818 5819 5819 5820 5820 5821 5821 5821 5822 5821 5821 5821 5821 5821 5820 5820 5819 5819 5818 5817 5816 5815 5814 5813 5812 5811 5810 5808 5807 5806 5805 5804 5803
5797 5799 5801 5802 5804 5805 5807 5808 5809 5811 5812 5813 5813 5814 5814 5815 5815 5815 5815 5815 5815 5815 5814 5814 5813 5813 5812 5812 5811 5810 5809 5807 5806 5805 5804 5803 5801 5800 5798 5797 5796 5795 5794
5791 5793 5795 5796 5798 5799 5800 5802 5803 5804 5805 5806 5807 5808 5808 5808 5809 5809 5809 5808 5808 5807 5807 5807 5806 5805 5805 5804 5803 5802 5801 5799 5798 5796 5795 5793 5792 5791 5789 5787 5786 5784 5783
5784 5786 5788 5790 5791 5792 5794 5795 5796 5797 5798 5799 5800 5801 5801 5801 5801 5801 5801 5801 5800 5800 5799 5799 5798 5797 5796 5795 5794 5793 5792 5790 5789 5787 5785 5784 5782 5780 5778 5777 5775 5774 5772
5777 5779 5781 5782 5784 5785 5787 5788 5789 5790 5791 5792 5793 5793 5793 5794 5794 5794 5793 5793 5792 5792 5791 5790 5789 5788 5788 5786 5785 5784 5783 5781 5779 5777 5775 5773 5771 5769 5767 5765 5764 5763 5762
5770 5772 5774 5775 5777 5778 5779 5781 5782 5783 5784 5785 5785 5785 5786 5786 5786 5786 5785 5785 5784 5783 5782 5781 5780 5779 5778 5777 5776 5774 5773 5771 5769 5766 5764 5762 5760 5757 5755 5753 5752 5751 5750
5762 5764 5766 5767 5769 5771 5772 5773 5774 5775 5776 5777 5777 5777 5777 5777 5777 5777 5776 5776 5775 5774 5773 5772 5770 5769 5768 5767 5765 5763 5762 5762 5758 5756 5753 5751 5748 5745 5743 5741 5740 5738 5737
5754 5755 5757 5759 5761 5762 5764 5765 5766 5767 5768 5768 5769 5769 5769 5768 5768 5767 5767 5766 5765 5764 5763 5762 5760 5759 5758 5756 5754 5752 5750 5749 5748 5746 5742 5740 5737 5734 5731 5729 5727 5725 5723
5745 5747 5748 5750 5752 5753 5755 5756 5758 5758 5759 5760 5760 5760 5760 5759 5758 5758 5757 5756 5755 5754 5753 5751 5750 5748 5747 5745 5742 5740 5738 5736 5734 5734 5732 5728 5725 5722 5719 5716 5714 5712 5710
5736 5737 5739 5741 5742 5744 5745 5747 5748 5749 5750 5751 5750 5750 5750 5750 5749 5748 5747 5745 5744 5743 5742 5741 5739 5737 5735 5733 5731 5729 5727 5724 5721 5719 5719 5717 5713 5709 5706 5703 5701 5698 5696
5726 5728 5730 5731 5732 5734 5736 5737 5739 5740 5740 5741 5741 5740 5740 5740 5739 5737 5736 5735 5734 5732 5731 5729 5728 5726 5724 5722 5719 5717 5714 5712 5709 5705 5703 5702 5699 5697 5693 5690 5687 5684 5681